Time,TemperatureF,DewpointF,PressureIn,WindDirection,WindDirectionDegrees,WindSpeedMPH,WindSpeedGustMPH,Humidity,HourlyPrecipIn,Conditions,Clouds,dailyrainin,SoftwareType,DateUTC
2013-04-25 00:00:00,47.1,19.9,29.91,NW,315,1.6,1.9,34,0.00,,,0.00,WUHU216TE923,2013-04-25 07:00:00,
2013-04-25 00:05:00,46.9,20.4,29.90,West,270,1.7,2.1,35,0.00,,,0.00,WUHU216TE923,2013-04-25 07:05:00,
2013-04-25 00:10:00,46.9,20.4,29.90,West,270,1.7,2.1,35,0.00,,,0.00,WUHU216TE923,2013-04-25 07:10:00,
2013-04-25 00:15:00,46.9,20.4,29.90,West,270,1.7,2.0,35,0.00,,,0.00,WUHU216TE923,2013-04-25 07:15:00,
2013-04-25 00:20:00,46.8,20.3,29.90,WSW,248,1.7,2.0,35,0.00,,,0.00,WUHU216TE923,2013-04-25 07:20:00,
2013-04-25 00:25:00,46.6,20.2,29.89,West,270,1.8,2.0,35,0.00,,,0.00,WUHU216TE923,2013-04-25 07:25:00,
2013-04-25 00:30:00,46.6,20.2,29.89,SW,225,1.7,1.8,35,0.00,,,0.00,WUHU216TE923,2013-04-25 07:30:00,
2013-04-25 00:35:00,46.4,20.0,29.89,WSW,248,1.6,1.7,35,0.00,,,0.00,WUHU216TE923,2013-04-25 07:35:00,
2013-04-25 00:40:00,46.2,20.5,29.89,WSW,248,1.5,1.6,36,0.00,,,0.00,WUHU216TE923,2013-04-25 07:40:00,
2013-04-25 00:45:00,46.2,20.5,29.89,WSW,248,1.4,1.6,36,0.00,,,0.00,WUHU216TE923,2013-04-25 07:45:00,
2013-04-25 00:50:00,46.2,20.5,29.89,WSW,248,1.5,1.5,36,0.00,,,0.00,WUHU216TE923,2013-04-25 07:50:00,
2013-04-25 00:55:00,46.2,20.5,29.89,WSW,248,1.5,1.7,36,0.00,,,0.00,WUHU216TE923,2013-04-25 07:55:00,
2013-04-25 01:00:00,46.2,21.1,29.89,WSW,248,1.5,1.7,37,0.00,,,0.00,WUHU216TE923,2013-04-25 08:00:00,
2013-04-25 01:05:00,46.2,21.1,29.89,WSW,248,1.5,1.5,37,0.00,,,0.00,WUHU216TE923,2013-04-25 08:05:00,
2013-04-25 01:10:00,46.2,21.1,29.89,WSW,248,1.5,1.6,37,0.00,,,0.00,WUHU216TE923,2013-04-25 08:10:00,
2013-04-25 01:15:00,46.2,21.1,29.89,WSW,248,1.5,1.7,37,0.00,,,0.00,WUHU216TE923,2013-04-25 08:15:00,
2013-04-25 01:20:00,46.2,21.1,29.89,West,270,1.4,1.7,37,0.00,,,0.00,WUHU216TE923,2013-04-25 08:20:00,
2013-04-25 01:25:00,46.2,21.1,29.90,WSW,248,1.5,1.5,37,0.00,,,0.00,WUHU216TE923,2013-04-25 08:25:00,
2013-04-25 01:30:00,46.2,20.5,29.90,West,270,1.6,2.5,36,0.00,,,0.00,WUHU216TE923,2013-04-25 08:30:00,
2013-04-25 01:35:00,46.8,20.3,29.90,West,270,2.0,2.5,35,0.00,,,0.00,WUHU216TE923,2013-04-25 08:35:00,
2013-04-25 01:40:00,46.9,20.4,29.90,West,270,2.2,2.4,35,0.00,,,0.00,WUHU216TE923,2013-04-25 08:40:00,
2013-04-25 01:45:00,46.9,20.4,29.88,SW,225,2.3,3.3,35,0.00,,,0.00,WUHU216TE923,2013-04-25 08:45:00,
2013-04-25 01:50:00,46.9,19.7,29.88,SSW,203,2.5,3.3,34,0.00,,,0.00,WUHU216TE923,2013-04-25 08:50:00,
2013-04-25 01:55:00,46.9,19.7,29.88,SW,225,2.5,3.3,34,0.00,,,0.00,WUHU216TE923,2013-04-25 08:55:00,
2013-04-25 02:00:00,46.8,19.7,29.88,WSW,248,2.3,3.3,34,0.00,,,0.00,WUHU216TE923,2013-04-25 09:00:00,
2013-04-25 02:05:00,46.9,19.7,29.89,WSW,248,2.5,3.0,34,0.00,,,0.00,WUHU216TE923,2013-04-25 09:05:00,
2013-04-25 02:10:00,47.1,19.9,29.89,SW,225,2.8,4.6,34,0.00,,,0.00,WUHU216TE923,2013-04-25 09:10:00,
2013-04-25 02:15:00,47.3,20.1,29.89,WSW,248,2.5,4.6,34,0.00,,,0.00,WUHU216TE923,2013-04-25 09:15:00,
2013-04-25 02:20:00,47.3,20.1,29.89,WSW,248,2.3,2.9,34,0.00,,,0.00,WUHU216TE923,2013-04-25 09:20:00,
2013-04-25 02:25:00,47.3,20.1,29.89,WSW,248,2.3,4.2,34,0.00,,,0.00,WUHU216TE923,2013-04-25 09:25:00,
2013-04-25 02:30:00,47.3,20.1,29.89,SW,225,2.2,4.2,34,0.00,,,0.00,WUHU216TE923,2013-04-25 09:30:00,
2013-04-25 02:35:00,47.3,19.4,29.89,SW,225,1.8,2.2,33,0.00,,,0.00,WUHU216TE923,2013-04-25 09:35:00,
2013-04-25 02:40:00,47.5,19.6,29.89,West,270,1.8,2.0,33,0.00,,,0.00,WUHU216TE923,2013-04-25 09:40:00,
2013-04-25 02:45:00,47.5,19.6,29.88,SSW,203,1.7,2.2,33,0.00,,,0.00,WUHU216TE923,2013-04-25 09:45:00,
2013-04-25 02:50:00,47.5,19.6,29.88,WSW,248,1.7,2.2,33,0.00,,,0.00,WUHU216TE923,2013-04-25 09:50:00,
2013-04-25 02:55:00,47.3,19.4,29.88,WSW,248,1.3,1.9,33,0.00,,,0.00,WUHU216TE923,2013-04-25 09:55:00,
2013-04-25 03:00:00,47.3,19.4,29.88,West,270,1.2,3.2,33,0.00,,,0.00,WUHU216TE923,2013-04-25 10:00:00,
2013-04-25 03:05:00,47.1,19.2,29.88,WSW,248,1.7,3.8,33,0.00,,,0.00,WUHU216TE923,2013-04-25 10:05:00,
2013-04-25 03:10:00,47.3,19.4,29.88,West,270,2.0,3.8,33,0.00,,,0.00,WUHU216TE923,2013-04-25 10:10:00,
2013-04-25 03:15:00,47.3,19.4,29.88,West,270,2.0,2.0,33,0.00,,,0.00,WUHU216TE923,2013-04-25 10:15:00,
2013-04-25 03:20:00,47.1,19.2,29.88,NW,315,2.2,2.5,33,0.00,,,0.00,WUHU216TE923,2013-04-25 10:20:00,
2013-04-25 03:25:00,47.1,19.2,29.88,West,270,1.3,2.5,33,0.00,,,0.00,WUHU216TE923,2013-04-25 10:25:00,
2013-04-25 03:30:00,46.9,19.0,29.88,WNW,293,0.9,1.5,33,0.00,,,0.00,WUHU216TE923,2013-04-25 10:30:00,
2013-04-25 03:35:00,47.1,19.9,29.88,WSW,248,1.6,2.4,34,0.00,,,0.00,WUHU216TE923,2013-04-25 10:35:00,
2013-04-25 03:40:00,47.1,19.9,29.88,West,270,2.1,4.4,34,0.00,,,0.00,WUHU216TE923,2013-04-25 10:40:00,
2013-04-25 03:45:00,47.1,19.9,29.88,WSW,248,2.5,4.4,34,0.00,,,0.00,WUHU216TE923,2013-04-25 10:45:00,
2013-04-25 03:50:00,47.3,20.1,29.88,WNW,293,2.7,3.9,34,0.00,,,0.00,WUHU216TE923,2013-04-25 10:50:00,
2013-04-25 03:55:00,47.5,20.3,29.88,NNW,338,2.6,2.7,34,0.00,,,0.00,WUHU216TE923,2013-04-25 10:55:00,
2013-04-25 04:00:00,47.3,20.1,29.88,NNW,338,2.1,2.6,34,0.00,,,0.00,WUHU216TE923,2013-04-25 11:00:00,
2013-04-25 04:05:00,46.9,19.7,29.88,West,270,1.8,2.2,34,0.00,,,0.00,WUHU216TE923,2013-04-25 11:05:00,
2013-04-25 04:10:00,46.9,19.7,29.88,West,270,1.7,2.1,34,0.00,,,0.00,WUHU216TE923,2013-04-25 11:10:00,
2013-04-25 04:15:00,46.9,19.7,29.88,SW,225,1.9,3.0,34,0.00,,,0.00,WUHU216TE923,2013-04-25 11:15:00,
2013-04-25 04:20:00,46.8,19.7,29.88,WSW,248,2.2,3.0,34,0.00,,,0.00,WUHU216TE923,2013-04-25 11:20:00,
2013-04-25 04:25:00,46.6,19.5,29.89,South,180,1.9,2.2,34,0.00,,,0.00,WUHU216TE923,2013-04-25 11:25:00,
2013-04-25 04:30:00,46.2,19.1,29.89,WSW,248,1.8,2.7,34,0.00,,,0.00,WUHU216TE923,2013-04-25 11:30:00,
2013-04-25 04:35:00,46.0,18.9,29.89,SW,225,2.3,3.7,34,0.00,,,0.00,WUHU216TE923,2013-04-25 11:35:00,
2013-04-25 04:40:00,46.0,19.6,29.89,SW,225,2.8,3.7,35,0.00,,,0.00,WUHU216TE923,2013-04-25 11:40:00,
2013-04-25 04:45:00,45.7,20.0,29.88,SW,225,3.2,4.9,36,0.00,,,0.00,WUHU216TE923,2013-04-25 11:45:00,
2013-04-25 04:50:00,45.5,19.8,29.88,SW,225,3.2,4.9,36,0.00,,,0.00,WUHU216TE923,2013-04-25 11:50:00,
2013-04-25 04:55:00,45.3,20.3,29.88,WSW,248,3.5,3.5,37,0.00,,,0.00,WUHU216TE923,2013-04-25 11:55:00,
2013-04-25 05:00:00,45.1,20.1,29.88,WSW,248,3.8,5.8,37,0.00,,,0.00,WUHU216TE923,2013-04-25 12:00:00,
2013-04-25 05:05:00,45.1,20.1,29.87,SSW,203,4.4,5.8,37,0.00,,,0.00,WUHU216TE923,2013-04-25 12:05:00,
2013-04-25 05:10:00,45.1,20.1,29.87,WSW,248,4.6,5.3,37,0.00,,,0.00,WUHU216TE923,2013-04-25 12:10:00,
2013-04-25 05:15:00,45.0,20.1,29.87,NW,315,4.3,9.1,37,0.00,,,0.00,WUHU216TE923,2013-04-25 12:15:00,
2013-04-25 05:20:00,45.0,20.1,29.87,NW,315,4.2,9.1,37,0.00,,,0.00,WUHU216TE923,2013-04-25 12:20:00,
2013-04-25 05:25:00,45.0,20.1,29.88,SW,225,4.0,4.5,37,0.00,,,0.00,WUHU216TE923,2013-04-25 12:25:00,
2013-04-25 05:30:00,45.1,20.1,29.88,West,270,4.1,6.7,37,0.00,,,0.00,WUHU216TE923,2013-04-25 12:30:00,
2013-04-25 05:35:00,45.1,20.1,29.88,NNW,338,4.3,6.7,37,0.00,,,0.00,WUHU216TE923,2013-04-25 12:35:00,
2013-04-25 05:40:00,45.1,20.1,29.88,SW,225,3.7,4.3,37,0.00,,,0.00,WUHU216TE923,2013-04-25 12:40:00,
2013-04-25 05:45:00,45.0,19.4,29.89,SW,225,3.2,5.1,36,0.00,,,0.00,WUHU216TE923,2013-04-25 12:45:00,
2013-04-25 05:50:00,45.0,19.4,29.89,SSW,203,3.1,5.1,36,0.00,,,0.00,WUHU216TE923,2013-04-25 12:50:00,
2013-04-25 05:55:00,45.0,19.4,29.89,SW,225,3.1,3.8,36,0.00,,,0.00,WUHU216TE923,2013-04-25 12:55:00,
2013-04-25 06:00:00,45.0,19.4,29.89,WSW,248,3.0,3.8,36,0.00,,,0.00,WUHU216TE923,2013-04-25 13:00:00,
2013-04-25 06:05:00,45.1,19.5,29.88,WSW,248,2.8,3.0,36,0.00,,,0.00,WUHU216TE923,2013-04-25 13:05:00,
2013-04-25 06:10:00,45.1,19.5,29.88,WSW,248,2.7,3.0,36,0.00,,,0.00,WUHU216TE923,2013-04-25 13:10:00,
2013-04-25 06:15:00,45.1,19.5,29.88,WSW,248,2.7,3.0,36,0.00,,,0.00,WUHU216TE923,2013-04-25 13:15:00,
2013-04-25 06:20:00,44.8,19.2,29.88,West,270,1.8,3.0,36,0.00,,,0.00,WUHU216TE923,2013-04-25 13:20:00,
2013-04-25 06:25:00,44.2,18.7,29.88,West,270,1.8,2.1,36,0.00,,,0.00,WUHU216TE923,2013-04-25 13:25:00,
2013-04-25 06:30:00,44.2,18.7,29.88,NW,315,1.9,2.3,36,0.00,,,0.00,WUHU216TE923,2013-04-25 13:30:00,
2013-04-25 06:35:00,44.4,18.9,29.88,West,270,1.9,4.0,36,0.00,,,0.00,WUHU216TE923,2013-04-25 13:35:00,
2013-04-25 06:40:00,44.6,19.0,29.88,WSW,248,1.9,4.0,36,0.00,,,0.00,WUHU216TE923,2013-04-25 13:40:00,
2013-04-25 06:45:00,44.6,19.0,29.89,NW,315,1.9,2.3,36,0.00,,,0.00,WUHU216TE923,2013-04-25 13:45:00,
2013-04-25 06:50:00,44.6,19.0,29.89,NNW,338,1.8,2.3,36,0.00,,,0.00,WUHU216TE923,2013-04-25 13:50:00,
2013-04-25 06:55:00,44.8,19.2,29.89,West,270,2.1,2.1,36,0.00,,,0.00,WUHU216TE923,2013-04-25 13:55:00,
2013-04-25 07:00:00,44.8,19.2,29.89,West,270,2.1,2.1,36,0.00,,,0.00,WUHU216TE923,2013-04-25 14:00:00,
2013-04-25 07:05:00,45.0,19.4,29.90,WSW,248,1.9,2.1,36,0.00,,,0.00,WUHU216TE923,2013-04-25 14:05:00,
2013-04-25 07:10:00,45.0,19.4,29.90,WNW,293,1.6,2.1,36,0.00,,,0.00,WUHU216TE923,2013-04-25 14:10:00,
2013-04-25 07:15:00,45.1,19.5,29.90,WSW,248,1.8,2.1,36,0.00,,,0.00,WUHU216TE923,2013-04-25 14:15:00,
2013-04-25 07:20:00,45.5,19.8,29.90,West,270,2.1,2.2,36,0.00,,,0.00,WUHU216TE923,2013-04-25 14:20:00,
2013-04-25 07:25:00,46.0,20.3,29.91,WNW,293,2.0,2.8,36,0.00,,,0.00,WUHU216TE923,2013-04-25 14:25:00,
2013-04-25 07:30:00,46.4,20.0,29.91,WSW,248,1.7,2.8,35,0.00,,,0.00,WUHU216TE923,2013-04-25 14:30:00,
2013-04-25 07:35:00,46.9,20.4,29.91,NW,315,1.6,2.6,35,0.00,,,0.00,WUHU216TE923,2013-04-25 14:35:00,
2013-04-25 07:40:00,47.3,20.1,29.91,NNW,338,1.5,2.5,34,0.00,,,0.00,WUHU216TE923,2013-04-25 14:40:00,
2013-04-25 07:45:00,47.5,20.3,29.90,WSW,248,0.9,2.3,34,0.00,,,0.00,WUHU216TE923,2013-04-25 14:45:00,
2013-04-25 07:50:00,47.8,20.5,29.90,West,270,0.9,1.4,34,0.00,,,0.00,WUHU216TE923,2013-04-25 14:50:00,
2013-04-25 07:55:00,48.2,20.9,29.90,South,180,1.2,1.2,34,0.00,,,0.00,WUHU216TE923,2013-04-25 14:55:00,
2013-04-25 08:00:00,48.6,20.5,29.90,NW,315,1.0,1.2,33,0.00,,,0.00,WUHU216TE923,2013-04-25 15:00:00,
2013-04-25 08:05:00,48.7,20.6,29.91,NNW,338,0.8,1.3,33,0.00,,,0.00,WUHU216TE923,2013-04-25 15:05:00,
2013-04-25 08:10:00,48.9,20.8,29.91,NW,315,1.0,1.6,33,0.00,,,0.00,WUHU216TE923,2013-04-25 15:10:00,
2013-04-25 08:16:00,49.5,21.3,29.91,WNW,293,1.0,2.7,33,0.00,,,0.00,WUHU216TE923,2013-04-25 15:16:00,
2013-04-25 08:21:00,49.6,21.4,29.91,WNW,293,1.1,2.7,33,0.00,,,0.00,WUHU216TE923,2013-04-25 15:21:00,
2013-04-25 08:26:00,50.0,21.0,29.90,NNW,338,1.3,1.3,32,0.00,,,0.00,WUHU216TE923,2013-04-25 15:26:00,
2013-04-25 08:31:00,50.4,21.4,29.90,WSW,248,1.0,1.5,32,0.00,,,0.00,WUHU216TE923,2013-04-25 15:31:00,
2013-04-25 08:36:00,50.7,21.7,29.90,WSW,248,0.8,2.2,32,0.00,,,0.00,WUHU216TE923,2013-04-25 15:36:00,
2013-04-25 08:41:00,50.9,21.8,29.90,NNW,338,0.8,2.2,32,0.00,,,0.00,WUHU216TE923,2013-04-25 15:41:00,
2013-04-25 08:46:00,51.4,22.3,29.91,North,0,1.0,1.8,32,0.00,,,0.00,WUHU216TE923,2013-04-25 15:46:00,
2013-04-25 08:51:00,51.6,22.5,29.91,West,270,1.3,1.8,32,0.00,,,0.00,WUHU216TE923,2013-04-25 15:51:00,
2013-04-25 08:56:00,52.2,23.0,29.91,WSW,248,1.1,1.6,32,0.00,,,0.00,WUHU216TE923,2013-04-25 15:56:00,
2013-04-25 09:01:00,52.5,23.2,29.91,NNW,338,1.2,1.8,32,0.00,,,0.00,WUHU216TE923,2013-04-25 16:01:00,
2013-04-25 09:06:00,52.5,22.5,29.90,SSW,203,1.2,2.8,31,0.00,,,0.00,WUHU216TE923,2013-04-25 16:06:00,
2013-04-25 09:11:00,52.9,22.8,29.90,WSW,248,0.9,2.8,31,0.00,,,0.00,WUHU216TE923,2013-04-25 16:11:00,
2013-04-25 09:16:00,53.2,23.1,29.90,NNE,23,1.1,1.4,31,0.00,,,0.00,WUHU216TE923,2013-04-25 16:16:00,
2013-04-25 09:21:00,53.6,23.5,29.90,East,90,1.0,1.4,31,0.00,,,0.00,WUHU216TE923,2013-04-25 16:21:00,
2013-04-25 09:26:00,54.1,23.9,29.90,ESE,113,0.8,1.7,31,0.00,,,0.00,WUHU216TE923,2013-04-25 16:26:00,
2013-04-25 09:31:00,54.3,24.1,29.90,WNW,293,0.8,1.7,31,0.00,,,0.00,WUHU216TE923,2013-04-25 16:31:00,
2013-04-25 09:36:00,54.9,25.4,29.90,NNW,338,0.9,1.7,32,0.00,,,0.00,WUHU216TE923,2013-04-25 16:36:00,
2013-04-25 09:41:00,55.2,24.9,29.90,SSE,158,1.0,1.7,31,0.00,,,0.00,WUHU216TE923,2013-04-25 16:41:00,
2013-04-25 09:46:00,55.6,24.4,29.90,SSW,203,1.2,2.4,30,0.00,,,0.00,WUHU216TE923,2013-04-25 16:46:00,
2013-04-25 09:51:00,56.3,25.0,29.90,SSE,158,1.1,2.4,30,0.00,,,0.00,WUHU216TE923,2013-04-25 16:51:00,
2013-04-25 09:56:00,56.8,25.5,29.90,SSE,158,0.7,1.2,30,0.00,,,0.00,WUHU216TE923,2013-04-25 16:56:00,
2013-04-25 10:01:00,57.4,26.0,29.90,South,180,0.8,4.3,30,0.00,,,0.00,WUHU216TE923,2013-04-25 17:01:00,
2013-04-25 10:06:00,57.9,26.4,29.90,South,180,1.1,4.3,30,0.00,,,0.00,WUHU216TE923,2013-04-25 17:06:00,
2013-04-25 10:11:00,57.9,26.4,29.90,South,180,1.9,4.0,30,0.00,,,0.00,WUHU216TE923,2013-04-25 17:11:00,
2013-04-25 10:16:00,58.6,27.0,29.90,South,180,2.5,3.9,30,0.00,,,0.00,WUHU216TE923,2013-04-25 17:16:00,
2013-04-25 10:21:00,58.6,27.0,29.90,SW,225,2.0,3.9,30,0.00,,,0.00,WUHU216TE923,2013-04-25 17:21:00,
2013-04-25 10:26:00,59.2,27.6,29.89,WSW,248,1.8,2.4,30,0.00,,,0.00,WUHU216TE923,2013-04-25 17:26:00,
2013-04-25 10:31:00,59.5,27.8,29.89,NE,45,1.9,5.6,30,0.00,,,0.00,WUHU216TE923,2013-04-25 17:31:00,
2013-04-25 10:36:00,59.7,28.0,29.89,WNW,293,1.9,5.6,30,0.00,,,0.00,WUHU216TE923,2013-04-25 17:36:00,
2013-04-25 10:41:00,59.9,28.2,29.89,NNW,338,1.9,3.0,30,0.00,,,0.00,WUHU216TE923,2013-04-25 17:41:00,
2013-04-25 10:46:00,60.3,28.5,29.90,ENE,68,1.9,5.3,30,0.00,,,0.00,WUHU216TE923,2013-04-25 17:46:00,
2013-04-25 10:51:00,60.6,28.8,29.90,NNE,23,1.4,5.3,30,0.00,,,0.00,WUHU216TE923,2013-04-25 17:51:00,
2013-04-25 10:56:00,61.3,28.6,29.90,NE,45,1.7,4.5,29,0.00,,,0.00,WUHU216TE923,2013-04-25 17:56:00,
2013-04-25 11:01:00,61.5,28.7,29.90,East,90,1.7,4.5,29,0.00,,,0.00,WUHU216TE923,2013-04-25 18:01:00,
2013-04-25 11:06:00,61.9,29.1,29.90,NNW,338,1.8,2.1,29,0.00,,,0.00,WUHU216TE923,2013-04-25 18:06:00,
2013-04-25 11:11:00,62.1,29.3,29.90,North,0,1.9,2.3,29,0.00,,,0.00,WUHU216TE923,2013-04-25 18:11:00,
2013-04-25 11:16:00,62.2,29.3,29.90,North,0,1.6,2.7,29,0.00,,,0.00,WUHU216TE923,2013-04-25 18:16:00,
2013-04-25 11:21:00,62.6,28.8,29.90,SW,225,1.7,2.7,28,0.00,,,0.00,WUHU216TE923,2013-04-25 18:21:00,
2013-04-25 11:26:00,62.8,29.0,29.90,NE,45,1.7,1.8,28,0.00,,,0.00,WUHU216TE923,2013-04-25 18:26:00,
2013-04-25 11:31:00,63.1,30.1,29.90,NNW,338,1.8,4.7,29,0.00,,,0.00,WUHU216TE923,2013-04-25 18:31:00,
2013-04-25 11:36:00,63.5,30.5,29.90,ENE,68,2.3,4.7,29,0.00,,,0.00,WUHU216TE923,2013-04-25 18:36:00,
2013-04-25 11:41:00,63.7,30.6,29.90,ENE,68,2.5,3.3,29,0.00,,,0.00,WUHU216TE923,2013-04-25 18:41:00,
2013-04-25 11:46:00,64.2,31.9,29.89,NNE,23,2.8,4.4,30,0.00,,,0.00,WUHU216TE923,2013-04-25 18:46:00,
2013-04-25 11:51:00,64.4,31.2,29.89,NW,315,3.2,5.3,29,0.00,,,0.00,WUHU216TE923,2013-04-25 18:51:00,
2013-04-25 11:56:00,64.4,31.2,29.89,NNE,23,3.6,5.3,29,0.00,,,0.00,WUHU216TE923,2013-04-25 18:56:00,
2013-04-25 12:01:00,64.8,32.4,29.89,NNE,23,4.6,8.4,30,0.00,,,0.00,WUHU216TE923,2013-04-25 19:01:00,
2013-04-25 12:06:00,64.9,32.5,29.90,NNE,23,5.2,9.8,30,0.00,,,0.00,WUHU216TE923,2013-04-25 19:06:00,
2013-04-25 12:11:00,64.8,32.4,29.90,NNE,23,5.2,9.8,30,0.00,,,0.00,WUHU216TE923,2013-04-25 19:11:00,
2013-04-25 12:16:00,64.8,32.4,29.90,NNE,23,5.2,5.2,30,0.00,,,0.00,WUHU216TE923,2013-04-25 19:16:00,
2013-04-25 12:21:00,65.3,32.9,29.90,NNE,23,3.2,5.6,30,0.00,,,0.00,WUHU216TE923,2013-04-25 19:21:00,
2013-04-25 12:26:00,65.3,32.9,29.89,NNE,23,4.0,5.6,30,0.00,,,0.00,WUHU216TE923,2013-04-25 19:26:00,
2013-04-25 12:31:00,65.5,33.0,29.89,NNW,338,4.6,6.3,30,0.00,,,0.00,WUHU216TE923,2013-04-25 19:31:00,
2013-04-25 12:36:00,65.5,32.2,29.89,NE,45,4.5,6.3,29,0.00,,,0.00,WUHU216TE923,2013-04-25 19:36:00,
2013-04-25 12:41:00,65.5,32.2,29.89,NNW,338,4.4,5.2,29,0.00,,,0.00,WUHU216TE923,2013-04-25 19:41:00,
2013-04-25 12:46:00,65.8,33.3,29.89,NNW,338,4.2,5.2,30,0.00,,,0.00,WUHU216TE923,2013-04-25 19:46:00,
2013-04-25 12:51:00,66.0,33.5,29.89,NNE,23,4.4,8.3,30,0.00,,,0.00,WUHU216TE923,2013-04-25 19:51:00,
2013-04-25 12:56:00,65.8,32.5,29.89,NW,315,4.3,8.3,29,0.00,,,0.00,WUHU216TE923,2013-04-25 19:56:00,
2013-04-25 13:01:00,65.8,33.3,29.89,NNE,23,4.3,7.3,30,0.00,,,0.00,WUHU216TE923,2013-04-25 20:01:00,
2013-04-25 13:06:00,65.8,33.3,29.89,NNE,23,4.3,4.9,30,0.00,,,0.00,WUHU216TE923,2013-04-25 20:06:00,
2013-04-25 13:11:00,66.4,33.0,29.89,North,0,4.0,4.0,29,0.00,,,0.00,WUHU216TE923,2013-04-25 20:11:00,
2013-04-25 13:16:00,65.8,32.5,29.89,NE,45,3.5,8.7,29,0.00,,,0.00,WUHU216TE923,2013-04-25 20:16:00,
2013-04-25 13:21:00,65.7,31.5,29.89,NE,45,3.5,8.7,28,0.00,,,0.00,WUHU216TE923,2013-04-25 20:21:00,
2013-04-25 13:26:00,65.7,31.5,29.89,NNE,23,3.9,7.7,28,0.00,,,0.00,WUHU216TE923,2013-04-25 20:26:00,
2013-04-25 13:31:00,65.8,32.5,29.89,NNW,338,3.9,7.7,29,0.00,,,0.00,WUHU216TE923,2013-04-25 20:31:00,
2013-04-25 13:36:00,66.0,32.6,29.89,WSW,248,3.3,5.9,29,0.00,,,0.00,WUHU216TE923,2013-04-25 20:36:00,
2013-04-25 13:41:00,66.2,32.8,29.89,North,0,3.0,4.7,29,0.00,,,0.00,WUHU216TE923,2013-04-25 20:41:00,
2013-04-25 13:46:00,66.4,33.0,29.90,NE,45,3.9,6.5,29,0.00,,,0.00,WUHU216TE923,2013-04-25 20:46:00,
2013-04-25 13:51:00,66.2,31.9,29.90,NNE,23,4.2,6.5,28,0.00,,,0.00,WUHU216TE923,2013-04-25 20:51:00,
2013-04-25 13:56:00,66.6,33.2,29.90,North,0,4.0,9.1,29,0.00,,,0.00,WUHU216TE923,2013-04-25 20:56:00,
2013-04-25 14:01:00,66.9,33.4,29.90,NNW,338,4.4,9.1,29,0.00,,,0.00,WUHU216TE923,2013-04-25 21:01:00,
2013-04-25 14:06:00,66.6,32.3,29.90,ENE,68,4.9,8.0,28,0.00,,,0.00,WUHU216TE923,2013-04-25 21:06:00,
2013-04-25 14:11:00,66.6,32.3,29.90,SE,135,3.6,6.3,28,0.00,,,0.00,WUHU216TE923,2013-04-25 21:11:00,
2013-04-25 14:16:00,66.9,33.4,29.90,North,0,3.4,5.6,29,0.00,,,0.00,WUHU216TE923,2013-04-25 21:16:00,
2013-04-25 14:21:00,67.3,32.9,29.90,NNE,23,4.3,5.6,28,0.00,,,0.00,WUHU216TE923,2013-04-25 21:21:00,
2013-04-25 14:26:00,67.3,33.8,29.90,NNW,338,4.8,5.1,29,0.00,,,0.00,WUHU216TE923,2013-04-25 21:26:00,
2013-04-25 14:31:00,67.1,32.7,29.90,North,0,4.2,4.8,28,0.00,,,0.00,WUHU216TE923,2013-04-25 21:31:00,
2013-04-25 14:36:00,67.5,33.9,29.90,NNW,338,4.4,5.6,29,0.00,,,0.00,WUHU216TE923,2013-04-25 21:36:00,
2013-04-25 14:41:00,67.6,33.2,29.90,NW,315,4.8,7.8,28,0.00,,,0.00,WUHU216TE923,2013-04-25 21:41:00,
2013-04-25 14:46:00,68.0,33.5,29.91,NE,45,4.4,7.8,28,0.00,,,0.00,WUHU216TE923,2013-04-25 21:46:00,
2013-04-25 14:51:00,68.0,32.6,29.91,ENE,68,4.2,9.3,27,0.00,,,0.00,WUHU216TE923,2013-04-25 21:51:00,
2013-04-25 14:56:00,68.4,33.8,29.91,SW,225,4.3,9.3,28,0.00,,,0.00,WUHU216TE923,2013-04-25 21:56:00,
2013-04-25 15:01:00,68.4,32.9,29.91,NE,45,4.4,12.0,27,0.00,,,0.00,WUHU216TE923,2013-04-25 22:01:00,
2013-04-25 15:06:00,67.8,32.4,29.90,ENE,68,4.3,12.0,27,0.00,,,0.00,WUHU216TE923,2013-04-25 22:06:00,
2013-04-25 15:11:00,68.0,33.5,29.90,ENE,68,4.5,6.3,28,0.00,,,0.00,WUHU216TE923,2013-04-25 22:11:00,
2013-04-25 15:16:00,68.2,32.8,29.90,ENE,68,3.2,5.7,27,0.00,,,0.00,WUHU216TE923,2013-04-25 22:16:00,
2013-04-25 15:21:00,67.8,33.3,29.90,NNE,23,3.5,6.5,28,0.00,,,0.00,WUHU216TE923,2013-04-25 22:21:00,
2013-04-25 15:26:00,68.2,32.8,29.90,NE,45,5.0,8.3,27,0.00,,,0.00,WUHU216TE923,2013-04-25 22:26:00,
2013-04-25 15:31:00,68.2,32.8,29.90,ENE,68,4.9,8.3,27,0.00,,,0.00,WUHU216TE923,2013-04-25 22:31:00,
2013-04-25 15:36:00,68.5,33.0,29.90,NNE,23,4.6,6.6,27,0.00,,,0.00,WUHU216TE923,2013-04-25 22:36:00,
2013-04-25 15:41:00,68.4,32.0,29.90,ENE,68,4.7,10.3,26,0.00,,,0.00,WUHU216TE923,2013-04-25 22:41:00,
2013-04-25 15:46:00,68.4,32.9,29.90,NNW,338,5.0,10.4,27,0.00,,,0.00,WUHU216TE923,2013-04-25 22:46:00,
2013-04-25 15:51:00,68.9,33.4,29.90,NNE,23,5.2,10.4,27,0.00,,,0.00,WUHU216TE923,2013-04-25 22:51:00,
2013-04-25 15:56:00,68.9,33.4,29.90,NNW,338,5.4,8.1,27,0.00,,,0.00,WUHU216TE923,2013-04-25 22:56:00,
2013-04-25 16:01:00,68.9,33.4,29.90,NE,45,5.6,8.5,27,0.00,,,0.00,WUHU216TE923,2013-04-25 23:01:00,
2013-04-25 16:06:00,68.7,33.2,29.90,North,0,5.1,8.5,27,0.00,,,0.00,WUHU216TE923,2013-04-25 23:06:00,
2013-04-25 16:11:00,68.9,33.4,29.90,NNE,23,4.8,10.0,27,0.00,,,0.00,WUHU216TE923,2013-04-25 23:11:00,
2013-04-25 16:16:00,68.7,33.2,29.90,NNE,23,5.2,10.0,27,0.00,,,0.00,WUHU216TE923,2013-04-25 23:16:00,
2013-04-25 16:21:00,68.5,33.0,29.90,NW,315,4.9,6.1,27,0.00,,,0.00,WUHU216TE923,2013-04-25 23:21:00,
2013-04-25 16:26:00,68.4,32.0,29.90,NW,315,4.8,8.2,26,0.00,,,0.00,WUHU216TE923,2013-04-25 23:26:00,
2013-04-25 16:31:00,68.5,32.1,29.90,NNE,23,5.6,9.5,26,0.00,,,0.00,WUHU216TE923,2013-04-25 23:31:00,
2013-04-25 16:36:00,68.4,32.0,29.90,ENE,68,6.7,9.5,26,0.00,,,0.00,WUHU216TE923,2013-04-25 23:36:00,
2013-04-25 16:41:00,68.0,31.7,29.90,NE,45,6.1,6.7,26,0.00,,,0.00,WUHU216TE923,2013-04-25 23:41:00,
2013-04-25 16:46:00,67.8,31.5,29.90,NNW,338,4.9,8.2,26,0.00,,,0.00,WUHU216TE923,2013-04-25 23:46:00,
2013-04-25 16:51:00,68.0,30.7,29.90,North,0,4.6,8.2,25,0.00,,,0.00,WUHU216TE923,2013-04-25 23:51:00,
2013-04-25 16:56:00,67.6,31.3,29.90,NE,45,5.1,6.2,26,0.00,,,0.00,WUHU216TE923,2013-04-25 23:56:00,
2013-04-25 17:01:00,67.6,31.3,29.90,NNW,338,5.5,11.5,26,0.00,,,0.00,WUHU216TE923,2013-04-26 00:01:00,
2013-04-25 17:06:00,67.8,31.5,29.90,NNE,23,5.3,11.5,26,0.00,,,0.00,WUHU216TE923,2013-04-26 00:06:00,
2013-04-25 17:11:00,67.6,31.3,29.90,NW,315,4.8,5.7,26,0.00,,,0.00,WUHU216TE923,2013-04-26 00:11:00,
2013-04-25 17:16:00,67.6,30.4,29.90,WNW,293,4.8,8.5,25,0.00,,,0.00,WUHU216TE923,2013-04-26 00:16:00,
2013-04-25 17:21:00,67.5,31.2,29.90,NW,315,5.2,8.5,26,0.00,,,0.00,WUHU216TE923,2013-04-26 00:21:00,
2013-04-25 17:26:00,67.1,30.9,29.90,NW,315,5.0,7.1,26,0.00,,,0.00,WUHU216TE923,2013-04-26 00:26:00,
2013-04-25 17:31:00,67.3,31.1,29.90,NNW,338,4.5,6.4,26,0.00,,,0.00,WUHU216TE923,2013-04-26 00:31:00,
2013-04-25 17:36:00,67.1,30.9,29.90,NNW,338,4.4,6.3,26,0.00,,,0.00,WUHU216TE923,2013-04-26 00:36:00,
2013-04-25 17:41:00,66.6,30.5,29.90,NNE,23,4.4,6.3,26,0.00,,,0.00,WUHU216TE923,2013-04-26 00:41:00,
2013-04-25 17:46:00,66.0,30.0,29.91,East,90,4.5,6.0,26,0.00,,,0.00,WUHU216TE923,2013-04-26 00:46:00,
2013-04-25 17:51:00,65.7,30.6,29.91,NNW,338,4.6,8.2,27,0.00,,,0.00,WUHU216TE923,2013-04-26 00:51:00,
2013-04-25 17:56:00,65.3,30.3,29.91,SE,135,4.9,8.2,27,0.00,,,0.00,WUHU216TE923,2013-04-26 00:56:00,
2013-04-25 18:01:00,65.1,30.1,29.91,NNW,338,5.2,7.7,27,0.00,,,0.00,WUHU216TE923,2013-04-26 01:01:00,
2013-04-25 18:06:00,64.9,29.9,29.92,NNE,23,4.5,8.2,27,0.00,,,0.00,WUHU216TE923,2013-04-26 01:06:00,
2013-04-25 18:11:00,64.6,29.7,29.92,NE,45,4.5,8.2,27,0.00,,,0.00,WUHU216TE923,2013-04-26 01:11:00,
2013-04-25 18:16:00,64.2,29.3,29.92,NNW,338,4.5,4.7,27,0.00,,,0.00,WUHU216TE923,2013-04-26 01:16:00,
2013-04-25 18:21:00,64.2,30.2,29.92,NW,315,4.4,5.7,28,0.00,,,0.00,WUHU216TE923,2013-04-26 01:21:00,
2013-04-25 18:26:00,63.9,30.0,29.92,NNE,23,4.8,5.7,28,0.00,,,0.00,WUHU216TE923,2013-04-26 01:26:00,
2013-04-25 18:31:00,63.9,30.0,29.92,NNE,23,4.9,7.7,28,0.00,,,0.00,WUHU216TE923,2013-04-26 01:31:00,
2013-04-25 18:36:00,63.5,29.6,29.92,NNE,23,4.6,7.7,28,0.00,,,0.00,WUHU216TE923,2013-04-26 01:36:00,
2013-04-25 18:41:00,63.5,30.5,29.92,NE,45,4.7,7.3,29,0.00,,,0.00,WUHU216TE923,2013-04-26 01:41:00,
2013-04-25 18:46:00,63.1,30.1,29.92,NNW,338,4.9,7.3,29,0.00,,,0.00,WUHU216TE923,2013-04-26 01:46:00,
2013-04-25 18:51:00,63.0,30.0,29.92,WNW,293,5.3,5.3,29,0.00,,,0.00,WUHU216TE923,2013-04-26 01:51:00,
2013-04-25 18:56:00,62.6,30.5,29.92,NNW,338,5.6,5.6,30,0.00,,,0.00,WUHU216TE923,2013-04-26 01:56:00,
2013-04-25 19:01:00,62.4,31.1,29.92,NNE,23,5.8,11.0,31,0.00,,,0.00,WUHU216TE923,2013-04-26 02:01:00,
2013-04-25 19:06:00,62.1,30.9,29.92,NNE,23,5.8,11.0,31,0.00,,,0.00,WUHU216TE923,2013-04-26 02:06:00,
2013-04-25 19:11:00,61.7,30.5,29.92,NE,45,6.3,7.7,31,0.00,,,0.00,WUHU216TE923,2013-04-26 02:11:00,
2013-04-25 19:16:00,61.3,31.0,29.92,NNE,23,6.0,8.5,32,0.00,,,0.00,WUHU216TE923,2013-04-26 02:16:00,
2013-04-25 19:21:00,61.2,30.9,29.92,NW,315,4.9,8.5,32,0.00,,,0.00,WUHU216TE923,2013-04-26 02:21:00,
2013-04-25 19:26:00,60.6,28.8,29.93,NNW,338,4.5,8.0,30,0.00,,,0.00,WUHU216TE923,2013-04-26 02:26:00,
2013-04-25 19:31:00,60.4,28.6,29.93,NW,315,4.8,8.0,30,0.00,,,0.00,WUHU216TE923,2013-04-26 02:31:00,
2013-04-25 19:36:00,60.1,28.3,29.93,NNW,338,4.8,6.3,30,0.00,,,0.00,WUHU216TE923,2013-04-26 02:36:00,
2013-04-25 19:41:00,59.9,29.0,29.93,NNE,23,4.8,9.6,31,0.00,,,0.00,WUHU216TE923,2013-04-26 02:41:00,
2013-04-25 19:46:00,59.5,28.6,29.93,NNE,23,4.5,9.6,31,0.00,,,0.00,WUHU216TE923,2013-04-26 02:46:00,
2013-04-25 19:51:00,59.4,28.5,29.93,NNW,338,4.0,4.5,31,0.00,,,0.00,WUHU216TE923,2013-04-26 02:51:00,
2013-04-25 19:56:00,59.0,28.9,29.93,NNW,338,3.1,4.0,32,0.00,,,0.00,WUHU216TE923,2013-04-26 02:56:00,
2013-04-25 20:01:00,58.8,28.8,29.93,NNW,338,3.5,5.1,32,0.00,,,0.00,WUHU216TE923,2013-04-26 03:01:00,
2013-04-25 20:06:00,58.6,29.4,29.94,North,0,4.4,5.1,33,0.00,,,0.00,WUHU216TE923,2013-04-26 03:06:00,
2013-04-25 20:11:00,58.3,29.1,29.94,NW,315,4.6,6.1,33,0.00,,,0.00,WUHU216TE923,2013-04-26 03:11:00,
2013-04-25 20:16:00,58.1,28.9,29.94,North,0,4.2,6.1,33,0.00,,,0.00,WUHU216TE923,2013-04-26 03:16:00,
2013-04-25 20:21:00,57.9,28.7,29.94,NNE,23,3.9,6.0,33,0.00,,,0.00,WUHU216TE923,2013-04-26 03:21:00,
2013-04-25 20:26:00,57.6,29.2,29.95,NNW,338,3.7,4.8,34,0.00,,,0.00,WUHU216TE923,2013-04-26 03:26:00,
2013-04-25 20:31:00,57.4,29.0,29.95,NNW,338,3.2,4.8,34,0.00,,,0.00,WUHU216TE923,2013-04-26 03:31:00,
2013-04-25 20:36:00,57.2,28.9,29.95,NNW,338,2.9,3.8,34,0.00,,,0.00,WUHU216TE923,2013-04-26 03:36:00,
2013-04-25 20:41:00,57.0,29.4,29.95,NNW,338,2.8,3.8,35,0.00,,,0.00,WUHU216TE923,2013-04-26 03:41:00,
2013-04-25 20:46:00,56.8,28.5,29.96,SW,225,2.9,3.2,34,0.00,,,0.00,WUHU216TE923,2013-04-26 03:46:00,
2013-04-25 20:51:00,56.7,28.4,29.96,North,0,2.8,3.2,34,0.00,,,0.00,WUHU216TE923,2013-04-26 03:51:00,
2013-04-25 20:56:00,56.5,28.9,29.96,NW,315,2.6,4.1,35,0.00,,,0.00,WUHU216TE923,2013-04-26 03:56:00,
2013-04-25 21:01:00,56.3,28.8,29.96,NW,315,2.8,4.1,35,0.00,,,0.00,WUHU216TE923,2013-04-26 04:01:00,
2013-04-25 21:06:00,56.3,28.8,29.96,NNE,23,3.2,3.6,35,0.00,,,0.00,WUHU216TE923,2013-04-26 04:06:00,
2013-04-25 21:11:00,56.3,28.8,29.96,NNE,23,3.4,6.1,35,0.00,,,0.00,WUHU216TE923,2013-04-26 04:11:00,
2013-04-25 21:16:00,56.1,28.6,29.96,NNW,338,2.8,6.1,35,0.00,,,0.00,WUHU216TE923,2013-04-26 04:16:00,
2013-04-25 21:21:00,55.9,28.4,29.96,NNW,338,2.4,2.8,35,0.00,,,0.00,WUHU216TE923,2013-04-26 04:21:00,
2013-04-25 21:26:00,55.8,28.3,29.98,NNW,338,1.4,2.7,35,0.00,,,0.00,WUHU216TE923,2013-04-26 04:26:00,
2013-04-25 21:31:00,55.8,28.3,29.98,NNE,23,1.5,2.7,35,0.00,,,0.00,WUHU216TE923,2013-04-26 04:31:00,
2013-04-25 21:36:00,55.8,28.3,29.98,NW,315,2.7,3.1,35,0.00,,,0.00,WUHU216TE923,2013-04-26 04:36:00,
2013-04-25 21:41:00,55.8,28.3,29.98,NNW,338,2.8,3.8,35,0.00,,,0.00,WUHU216TE923,2013-04-26 04:41:00,
2013-04-25 21:46:00,55.6,28.1,29.98,NNW,338,2.4,4.4,35,0.00,,,0.00,WUHU216TE923,2013-04-26 04:46:00,
2013-04-25 21:51:00,55.6,28.1,29.98,NW,315,2.8,4.4,35,0.00,,,0.00,WUHU216TE923,2013-04-26 04:51:00,
2013-04-25 21:56:00,55.6,28.1,29.98,NNE,23,3.2,3.4,35,0.00,,,0.00,WUHU216TE923,2013-04-26 04:56:00,
2013-04-25 22:01:00,55.4,28.0,29.98,WNW,293,2.4,3.2,35,0.00,,,0.00,WUHU216TE923,2013-04-26 05:01:00,
2013-04-25 22:06:00,55.2,29.2,29.99,NNW,338,1.1,2.4,37,0.00,,,0.00,WUHU216TE923,2013-04-26 05:06:00,
2013-04-25 22:11:00,55.0,29.0,29.99,NNW,338,1.3,4.1,37,0.00,,,0.00,WUHU216TE923,2013-04-26 05:11:00,
2013-04-25 22:16:00,55.2,29.2,29.99,NW,315,2.3,4.5,37,0.00,,,0.00,WUHU216TE923,2013-04-26 05:16:00,
2013-04-25 22:21:00,55.0,28.3,29.99,NNE,23,2.4,4.5,36,0.00,,,0.00,WUHU216TE923,2013-04-26 05:21:00,
2013-04-25 22:26:00,54.9,28.9,29.99,SSE,158,1.4,2.4,37,0.00,,,0.00,WUHU216TE923,2013-04-26 05:26:00,
2013-04-25 22:31:00,54.5,29.2,29.99,West,270,0.5,1.4,38,0.00,,,0.00,WUHU216TE923,2013-04-26 05:31:00,
2013-04-25 22:36:00,54.0,29.4,29.99,NNW,338,0.2,2.2,39,0.00,,,0.00,WUHU216TE923,2013-04-26 05:36:00,
2013-04-25 22:41:00,54.0,28.8,29.99,NW,315,0.9,2.2,38,0.00,,,0.00,WUHU216TE923,2013-04-26 05:41:00,
2013-04-25 22:46:00,54.1,28.8,29.99,SE,135,1.3,1.4,38,0.00,,,0.00,WUHU216TE923,2013-04-26 05:46:00,
2013-04-25 22:51:00,53.8,29.2,29.99,SSW,203,0.7,1.3,39,0.00,,,0.00,WUHU216TE923,2013-04-26 05:51:00,
2013-04-25 22:56:00,53.2,29.9,29.99,SW,225,0.7,1.7,41,0.00,,,0.00,WUHU216TE923,2013-04-26 05:56:00,
2013-04-25 23:01:00,52.7,30.7,29.99,West,270,1.1,1.7,43,0.00,,,0.00,WUHU216TE923,2013-04-26 06:01:00,
2013-04-25 23:06:00,52.7,30.7,29.99,WNW,293,1.6,1.7,43,0.00,,,0.00,WUHU216TE923,2013-04-26 06:06:00,
2013-04-25 23:11:00,52.7,30.7,29.99,West,270,1.7,2.2,43,0.00,,,0.00,WUHU216TE923,2013-04-26 06:11:00,
2013-04-25 23:16:00,52.7,31.3,29.99,West,270,1.5,2.2,44,0.00,,,0.00,WUHU216TE923,2013-04-26 06:16:00,
2013-04-25 23:21:00,52.5,31.1,29.99,NW,315,1.4,1.5,44,0.00,,,0.00,WUHU216TE923,2013-04-26 06:21:00,
2013-04-25 23:26:00,52.7,31.3,30.00,ENE,68,1.0,1.5,44,0.00,,,0.00,WUHU216TE923,2013-04-26 06:26:00,
2013-04-25 23:31:00,52.7,31.3,30.00,WNW,293,0.8,2.6,44,0.00,,,0.00,WUHU216TE923,2013-04-26 06:31:00,
2013-04-25 23:36:00,52.5,31.1,30.00,SW,225,0.6,2.6,44,0.00,,,0.00,WUHU216TE923,2013-04-26 06:36:00,
2013-04-25 23:41:00,52.3,31.5,30.00,SW,225,0.7,1.4,45,0.00,,,0.00,WUHU216TE923,2013-04-26 06:41:00,
2013-04-25 23:46:00,51.8,31.0,30.00,WSW,248,0.5,1.4,45,0.00,,,0.00,WUHU216TE923,2013-04-26 06:46:00,
2013-04-25 23:51:00,51.6,31.4,30.00,WSW,248,0.4,1.2,46,0.00,,,0.00,WUHU216TE923,2013-04-26 06:51:00,
2013-04-25 23:56:00,51.6,31.4,30.00,West,270,0.5,1.3,46,0.00,,,0.00,WUHU216TE923,2013-04-26 06:56:00,